AirNav   Everest Fuels
 
 973 users online  

U98 Idaho City USFS Airport
Idaho City, Idaho, USA

GOING TO IDAHO CITY?


FAA INFORMATION EFFECTIVE 19 MAY 2022

Location

FAA Identifier: U98
Lat/Long: 43-49-14.6150N 115-51-03.3940W
43-49.243583N 115-51.056567W
43.8207264,-115.8509428
(estimated)
Elevation: 3920 ft. / 1195 m (estimated)
Variation: 17E (1985)
From city: 1 mile SW of IDAHO CITY, ID
Time zone: UTC -6 (UTC -7 during Standard Time)
Zip code: 83631

Airport Operations

Airport use: Open to the public
Activation date: 11/1948
Control tower: no
ARTCC: SALT LAKE CITY CENTER
FSS: BOISE FLIGHT SERVICE STATION
NOTAMs facility: BOI (NOTAM-D service available)
Attendance: UNATNDD
Wind indicator: yes
Segmented circle: yes

Airport Communications

CTAF: 122.9

Nearby radio navigation aids

VOR radial/distance  VOR name  Freq  Var
BOIr026/21.9BOISE VORTAC113.3017E

Airport Services

Airframe service: NONE
Powerplant service: NONE
Bottled oxygen: NONE
Bulk oxygen: NONE

Runway Information

Runway 4/22

Dimensions: 3400 x 50 ft. / 1036 x 15 m
Surface: turf/gravel, in good condition
FIRST 900 FT OF RWY END 4 IS TURF; RMNG IS DIRT/GRVL MIX.
Runway edge markings: 04/22 EDGES & THRS MARKED WITH WHITE ROCK.
Operational restrictions: RECOMMEND LAND RY 04; TKOFF RY 22; WHEN WIND CONDITIONS PERMIT.
RUNWAY 4  RUNWAY 22
Traffic pattern: leftleft
Obstructions: 50 ft. trees, 20 ft. from runway, 55 ft. left of centerline, 1:1 slope to clear
70 FT TREES LCTD ON L SIDE OF RWY - ADJ TO RWY END BOUNDARY MKR.
70 ft. trees, 60 ft. from runway, 105 ft. left of centerline, 1:1 slope to clear

Airport Ownership and Management from official FAA records

Ownership: Publicly-owned
Owner: US FOREST SERVICE
324 25TH ST
OGDEN, UT 84401
Phone 801-625-5511
Manager: CHRIS BOLDMAN- AV OFCR. BOISE NF
3833 HIGHWAY 21 OR P.O. BOX 129
IDAHO CITY, ID 83763
Phone (208) 392-6681

Airport Operational Statistics

Aircraft operations: avg 38/week *
75% transient general aviation
20% air taxi
5% military
* for 12-month period ending 30 March 2022

Additional Remarks

A52 NMRS ADDNL TREES/OBSTNS ON APCHS TO RWY 04 & 22.
NO WINTER MAINTENANCE.
USFS HELICOPTER OPNS DURING FIRE SEASON.
NO TELEPHONE AVBL AT ARPT.
WEST 700 FT OF RY IS TURF; REMAINDER IS GRVL.
FOR CD CTC BIG SKY APCH AT 208-364-5860/5861.

Instrument Procedures

There are no published instrument procedures at U98.

Some nearby airports with instrument procedures:

KBOI - Boise Air Terminal/Gowen Field (22 nm SW)
KMAN - Nampa Municipal Airport (33 nm SW)
KEUL - Treasure Valley Executive Airport at Caldwell (36 nm W)
U76 - Mountain Home Municipal Airport (42 nm S)
KMUO - Mountain Home Air Force Base (47 nm S)
 
Loc | Ops | Rwys | IFR | FBO | Links
Com | Nav | Svcs | Stats | Notes
Area around U98 (Idaho City USFS Airport)
 
Road maps at: MapQuest Bing Google
 
Aerial photo
WARNING: Photo may not be current or correct
Aerial photo of U98 (Idaho City USFS Airport)
Photo by Bob Christensen
Photo taken 20-May-2012
looking north.

Do you have a better or more recent aerial photo of Idaho City USFS Airport that you would like to share? If so, please send us your photo.

 
Sectional chart

 
Airport distance calculator
Flying to Idaho City USFS Airport? Find the distance to fly.

From to U98

Sunrise and sunset
Times for 20-May-2022
 Local
(UTC-6)
 Zulu
(UTC)
Morning civil twilight05:4011:40
Sunrise06:1412:14
Sunset21:0603:06
Evening civil twilight21:4003:40

Current date and time
Zulu (UTC)  21-May-2022 02:45:34
Local (UTC-6)  20-May-2022 20:45:34
 
METAR
KBOI 
23nm SW 
210153Z 31007KT 10SM SCT080 17/M03 A2998 RMK AO2 SLP147 T01721033
KEUL 
35nm W 
210156Z AUTO 24007KT 10SM CLR 17/M02 A2998 RMK AO2 SLP153 T01671022
KSNT 
45nm NE 
210151Z AUTO 00000KT 07/M08 A3002 RMK AO1 SLP132 T00671078
TAF
KBOI 
23nm SW 
201730Z 2018/2118 32012G19KT P6SM SCT150 FM202000 32014G22KT P6SM VCSH BKN100 FM210300 VRB06KT P6SM SCT150
NOTAMs
Click for the latest NOTAMs
NOTAMs are issued by the DoD/FAA and will open in a separate window not controlled by AirNav.

 

 
 

Would you like to see your business listed on this page?

 If your business provides an interesting product or service to pilots, flight crews, aircraft, or users of the Idaho City USFS Airport, you should consider listing it here.  To start the listing process, click on the button below
 
Add a business
 

Other Pages about Idaho City USFS Airport

Update a link
 
Copyright © AirNav, LLC. All rights reserved. Privacy Policy  Contact